Weather History for Fort Worth, TX

Change the Weather History Date:

Sunday, June 9, 2013

  Actual Average Record
Temperature  
Mean Temperature 77 °F -  
Max Temperature 89 °F 87 °F 98 °F (1998)
Min Temperature 66 °F 67 °F 64 °F (2014)
Cooling Degree Days 12    
Growing Degree Days 27 (Base 50)    
Moisture  
Dew Point 67 °F    
Average Humidity 78    
Maximum Humidity 100    
Minimum Humidity 48    
Precipitation  
Precipitation 1.34 in - - ()
Sea Level Pressure  
Sea Level Pressure 29.88 in    
Wind  
Wind Speed 10 mph (NNE)    
Max Wind Speed 28 mph    
Max Gust Speed 36 mph    
Visibility 8 miles    
Events Rain , Thunderstorm    
Averages and records for this station are not official NWS values.
T = Trace of Precipitation, MM = Missing Value Source: NWS Daily Summary

Daily Weather History Graph

Daily Weather History Graph

Search for Another Location

Airport:

Trip Planner

Search our weather history database for the weather conditions in past years. The results will help you decide how hot, cold, wet, or windy it might be!

Date:

Astronomy

Jun. 09, 2013 Rise Set
Actual Time 6:20 AM CDT 8:36 PM CDT
Civil Twilight 5:52 AM CDT 9:05 PM CDT
Nautical Twilight 5:17 AM CDT 9:40 PM CDT
Astronomical Twilight 4:39 AM CDT 10:18 PM CDT
Moon 7:15 AM CDT (6/9) 9:28 PM CDT (6/9)
Length of Visible Light 15h 13m
Length of Day
14h 16m
New Moon, 1% of the Moon is Illuminated
Jun 9
New Moon
Jun 16
First Quarter
Jun 23
Full
Jun 29
Last Quarter
Jul 8
New

Hourly Weather History & Observations

Time (CDT) Temp. Heat Index Dew Point Humidity Pressure Visibility Wind Dir Wind Speed Gust Speed Precip Events Conditions
12:53 AM 77.0 °F - 62.1 °F 60% 29.82 in 10.0 mi SE 12.7 mph - N/A   Partly Cloudy
1:53 AM 75.0 °F - 64.9 °F 71% 29.82 in 10.0 mi SE 10.4 mph - N/A   Clear
2:53 AM 73.9 °F - 66.9 °F 79% 29.82 in 10.0 mi South 11.5 mph - N/A   Clear
3:53 AM 73.9 °F - 68.0 °F 82% 29.83 in 10.0 mi SSE 9.2 mph - N/A   Mostly Cloudy
4:53 AM 73.9 °F - 70.0 °F 87% 29.84 in 10.0 mi SSE 10.4 mph - N/A   Overcast
5:23 AM 73.4 °F - 69.8 °F 88% 29.88 in 10.0 mi NW 12.7 mph 18.4 mph N/A Thunderstorm Thunderstorm
5:30 AM 71.6 °F - 64.4 °F 78% 29.86 in 9.0 mi NNE 27.6 mph 35.7 mph N/A Thunderstorm Thunderstorm
5:47 AM 68.0 °F - 66.2 °F 94% 29.92 in 1.2 mi NW 8.1 mph 34.5 mph 0.26 in Rain , Thunderstorm Heavy Thunderstorms and Rain
5:53 AM 66.9 °F - 66.9 °F 100% 29.89 in 0.8 mi North 15.0 mph 18.4 mph 0.43 in Rain , Thunderstorm Heavy Thunderstorms and Rain
6:00 AM 66.2 °F - 66.2 °F 100% 29.93 in 1.2 mi NW 8.1 mph - 0.07 in Rain , Thunderstorm Heavy Thunderstorms and Rain
6:29 AM 66.2 °F - 66.2 °F 100% 29.92 in 2.0 mi NE 10.4 mph - 0.69 in Rain , Thunderstorm Heavy Thunderstorms and Rain
6:39 AM 66.2 °F - 66.2 °F 100% 29.93 in 4.0 mi NNE 4.6 mph - 0.72 in Rain , Thunderstorm Heavy Thunderstorms and Rain
6:53 AM 66.0 °F - 66.0 °F 100% 29.90 in 5.0 mi NE 10.4 mph - 0.74 in Rain , Thunderstorm Rain
7:13 AM 66.2 °F - 66.2 °F 100% 29.91 in 6.0 mi ENE 11.5 mph - 0.05 in Rain , Thunderstorm Heavy Rain
7:34 AM 66.2 °F - 66.2 °F 100% 29.91 in 7.0 mi East 11.5 mph - 0.09 in Rain Rain
7:53 AM 66.0 °F - 66.0 °F 100% 29.87 in 6.0 mi East 15.0 mph - 0.14 in Rain Rain
8:53 AM 69.1 °F - 68.0 °F 96% 29.81 in 10.0 mi East 18.4 mph 28.8 mph 0.03 in   Scattered Clouds
9:53 AM 71.1 °F - 68.0 °F 90% 29.91 in 10.0 mi West 13.8 mph - N/A   Partly Cloudy
10:53 AM 73.9 °F - 68.0 °F 82% 29.92 in 10.0 mi WSW 9.2 mph - N/A   Partly Cloudy
11:43 AM 77.0 °F - 69.8 °F 78% 29.95 in 10.0 mi West 5.8 mph - N/A   Mostly Cloudy
11:51 AM 78.8 °F - 69.8 °F 74% 29.94 in 10.0 mi West 8.1 mph - N/A   Scattered Clouds
11:53 AM 77.0 °F - 69.1 °F 76% 29.92 in 10.0 mi Variable 5.8 mph - N/A   Partly Cloudy
12:53 PM 80.1 °F 82.7 °F 68.0 °F 67% 29.91 in 10.0 mi NNW 5.8 mph - N/A   Clear
1:53 PM 82.9 °F 86.5 °F 69.1 °F 63% 29.90 in 10.0 mi NW 12.7 mph - N/A   Partly Cloudy
2:53 PM 84.9 °F 89.4 °F 70.0 °F 61% 29.88 in 10.0 mi NW 6.9 mph 16.1 mph N/A   Clear
3:53 PM 86.0 °F 89.4 °F 68.0 °F 55% 29.87 in 10.0 mi North 5.8 mph - N/A   Clear
4:53 PM 87.1 °F 89.9 °F 66.9 °F 51% 29.86 in 10.0 mi NW 4.6 mph - N/A   Clear
5:53 PM 88.0 °F 90.7 °F 66.9 °F 49% 29.85 in 10.0 mi Variable 5.8 mph - N/A   Clear
6:53 PM 88.0 °F 90.3 °F 66.0 °F 48% 29.85 in 10.0 mi NNE 4.6 mph - N/A   Clear
7:53 PM 84.9 °F 87.1 °F 66.0 °F 53% 29.85 in 10.0 mi ENE 3.5 mph - N/A   Clear
8:53 PM 82.0 °F 84.5 °F 66.9 °F 60% 29.86 in 10.0 mi East 4.6 mph - N/A   Clear
9:53 PM 78.1 °F - 69.1 °F 74% 29.89 in 10.0 mi Calm Calm - N/A   Clear
10:53 PM 79.0 °F - 68.0 °F 69% 29.91 in 10.0 mi Calm Calm - N/A   Clear
11:53 PM 75.9 °F - 69.1 °F 79% 29.91 in 10.0 mi Calm Calm - N/A   Clear